Flag for Austria Weather past 2 weeks in Murau, Styria, Austria

Now
68 °F

Scattered clouds.


Feels Like: 68 °F
Forecast: 43 / 76 °F
Wind: 2 mph from North

Location: Zeltweg

Current Time: Aug 28, 2014 at 2:11:21 PM

Latest Report: Aug 28, 2014 at 1:50 PM


Visibility: 25 mi

Pressure: 30.12 "Hg

Humidity: 46%

Dew point: 46 °F

Location of MurauLocation

Historic Weather in Murau — Graph

°F

Murau temperature yesterday

Maximum temperature yesterday: 73 °F (at 1:20 PM)
Minimum temperature yesterday: 52 °F (at 10:50 PM)
Average temperature yesterday: 64 °F

Past Weeks' High & Low Weather Summary

 TemperatureHumidityPressure
High84 °F (Aug 13, 5:50 PM)100% (Aug 13, 6:50 PM)30.18 "Hg (Aug 13, 6:50 PM)
Low43 °F (Aug 18, 5:50 AM)36% (Aug 27, 1:20 PM)29.71 "Hg (Aug 13, 1:50 PM)
Average60 °F73%29.99 "Hg
* Reported Aug 13 12:50 PM — Aug 28 12:50 PM, Murau, Weather by CustomWeather, © 2014

Note: Actual official high and low records may vary slightly from our data, if they occured in-between our weather recording intervals... More about our weather records

Advertising

Murau weather history for previous 24 hours

 ConditionsComfort  
Time TempWeatherWind HumidityBarometerVisibility
12:50 PM
Aug 28
66 °FScattered clouds.2 mph49%30.12 "Hg25 mi
12:20 PM64 °FScattered clouds.6 mph52%30.15 "Hg25 mi
11:50 AM64 °FPassing clouds.3 mph52%30.15 "Hg25 mi
11:20 AM63 °FPassing clouds.2 mph56%30.15 "Hg25 mi
10:50 AM61 °FPassing clouds.3 mph59%30.15 "Hg25 mi
10:20 AM59 °FPassing clouds.2 mph59%30.15 "Hg25 mi
9:50 AM57 °FPassing clouds.2 mph67%30.18 "Hg25 mi
9:20 AM54 °FPassing clouds.2 mph77%30.18 "Hg25 mi
8:50 AM54 °FPassing clouds.1 mph77%30.18 "Hg25 mi
8:20 AM50 °FScattered clouds.2 mph82%30.18 "Hg25 mi
7:50 AM48 °FScattered clouds.2 mph87%30.18 "Hg19 mi
7:20 AM46 °FPartly sunny.1 mph93%30.18 "Hg19 mi
6:50 AM46 °FPassing clouds.1 mph93%30.18 "Hg19 mi
5:50 AM45 °FPassing clouds.1 mph93%30.15 "Hg19 mi
4:50 AM43 °FPassing clouds.2 mph93%30.15 "Hg19 mi
10:50 PM
Aug 27
52 °FPassing clouds.5 mph82%30.09 "Hg25 mi
9:50 PM55 °FPassing clouds.2 mph77%30.07 "Hg25 mi
8:50 PM59 °FScattered clouds.3 mph63%30.04 "Hg25 mi
7:50 PM61 °FScattered clouds.10 mph59%30.01 "Hg25 mi
7:20 PM63 °FScattered clouds.12 mph56%30.01 "Hg25 mi
6:50 PM63 °FScattered clouds.16 mph52%29.98 "Hg25 mi
6:20 PM66 °FScattered clouds.15 mph49%29.98 "Hg25 mi
5:50 PM66 °FScattered clouds.13 mph46%29.98 "Hg25 mi
4:20 PM70 °FScattered clouds.12 mph40%29.95 "Hg25 mi
3:50 PM72 °FScattered clouds.13 mph41%29.92 "Hg25 mi
3:20 PM72 °FScattered clouds.12 mph36%29.92 "Hg25 mi
2:50 PM73 °FScattered clouds.14 mph36%29.92 "Hg25 mi
2:20 PM73 °FPartly sunny.12 mph36%29.89 "Hg25 mi
Weather by CustomWeather, © 2014

See weather overviewHow to use our weather pages